Regional Weather Roundup
Issued by NWS

Home | Current Version | Previous Version | Graphics & Text | Print | Product List | Glossary On
Versions: 1 2 3 4 5 6 7 8 9 10 11 12 13 14 15 16 17 18 19 20 21 22 23 24 25 26 27 28 29 30 31 32 33 34 35 36 37 38 39 40 41 42 43 44 45 46 47 48 49 50
000
ASUS43 KOAX 290210
RWRNE

WEATHER ROUNDUP FOR NEBRASKA
NATIONAL WEATHER SERVICE OMAHA NE
900 PM CDT THU AUG 28 2014

NOTES: SATELLITE DATA IS BEING USED TO AUGMENT CLOUD COVER ABOVE
       12000 FEET.
       "FAIR" INDICATES FEW OR NO CLOUDS BELOW 12,000 FEET WITH NO
       SIGNIFICANT WEATHER AND/OR OBSTRUCTIONS TO VISIBILITY.

  * THESE STATIONS DO NOT REPORT WEATHER SUCH AS RAIN...SNOW OR FOG.

NEZ001>004-019>022-054>056-290300-
NEBRASKA PANHANDLE

CITY           SKY/WX    TMP DP  RH WIND       PRES   REMARKS
SCOTTSBLUFF    MOCLDY    61  53  75 W6        30.00F
ALLIANCE       MOCLDY    62  55  77 W8        29.97R
CHADRON        MOCLDY    63  58  83 S6        29.95S
KIMBALL        MOCLDY    57  53  85 NW7       30.06S
SIDNEY         CLOUDY    62  53  72 W8        30.03F
$$

NEZ057>060-069>072-079>082-290300-
SOUTHWEST NEBRASKA

CITY           SKY/WX    TMP DP  RH WIND       PRES   REMARKS
NORTH PLATTE   PTCLDY    65  59  81 NW8       29.90R
IMPERIAL       MOCLDY    66  56  70 NW6       29.97R
LEXINGTON      PTCLDY    74  69  82 E3        29.86R
MCCOOK         MOCLDY    72  62  71 W12       29.90R
OGALLALA       PTCLDY    57  55  90 W3        29.96R
$$

NEZ005>010-023>029-035>040-094-290300-
NORTH CENTRAL NEBRASKA

CITY           SKY/WX    TMP DP  RH WIND       PRES   REMARKS
VALENTINE      CLOUDY    62  59  90 SW10      29.88S
AINSWORTH      CLOUDY    64  58  83 NW10G16   29.88R
BROKEN BOW     PTCLDY    66  61  84 N8        29.87R
O`NEILL        CLOUDY    72  69  91 W10G16    29.87R
ORD            CLOUDY    69  63  81 NW14G21   29.85R
THEDFORD       PTCLDY    64  59  85 N10       29.91S
$$

NEZ041-046>049-061>064-073>077-083>087-290300-
SOUTH CENTRAL NEBRASKA

CITY           SKY/WX    TMP DP  RH WIND       PRES   REMARKS
GRAND ISLAND   MOCLDY    75  70  84 S6        29.84R
AURORA         CLOUDY    75  70  85 S8        29.84R
HASTINGS       MOCLDY    76  67  73 S6        29.84R
HEBRON         CLOUDY    73  65  78 SW3       29.84R
HOLDREGE       MOCLDY    73  66  78 S3        29.86R
KEARNEY *      PTCLDY    72  66  83 SE6       29.86R
YORK           CLOUDY    72 N/A N/A S6        29.84R
$$

NEZ011>018-030>034-042>045-290300-
NORTHEAST NEBRASKA

CITY           SKY/WX    TMP DP  RH WIND       PRES   REMARKS
NORFOLK        CLOUDY    74  70  87 S7        29.81S
ALBION         CLOUDY    74  70  87 SE3       29.82S
BLAIR          CLOUDY    76  72  86 SE9       29.85R
FREMONT        CLOUDY    75  70  83 SE6       29.84R
TEKAMAH        CLOUDY    75  71  87 SE9       29.83R
WAYNE          MOCLDY    73  71  92 CALM      29.82R
$$

NEZ050>053-065>068-078-088>093-290300-
SOUTHEAST NEBRASKA

CITY           SKY/WX    TMP DP  RH WIND       PRES   REMARKS
LINCOLN        MOCLDY    74  68  81 S7        29.83F
OMAHA EPPLEY   MOCLDY    77  72  84 SE7       29.85R
BEATRICE       MOCLDY    74  70  88 SE5       29.84S
FALLS CITY     MOCLDY    77  74  90 CALM      29.84R
NEBRASKA CITY  PTCLDY    73  73 100 CALM      29.86R
PLATTSMOUTH    PTCLDY    76  72  88 E3        29.86R
$$

NEZ044-045-051>053-067-290300-
OMAHA AREA

CITY           SKY/WX    TMP DP  RH WIND       PRES   REMARKS
OMAHA EPPLEY   MOCLDY    77  72  84 SE7       29.85R
BLAIR          CLOUDY    76  72  86 SE9       29.85R
FREMONT        CLOUDY    75  70  83 SE6       29.84R
MILLARD        MOCLDY    78  73  86 SE5       29.84R
OFFUTT AFB     PTCLDY    76  76 100 E5        29.84R
PLATTSMOUTH    PTCLDY    76  72  88 E3        29.86R
WAHOO          FAIR      73  68  84 SE7       29.83R
$$


USA.gov is the U.S. government's official web portal to all federal, state and local government web resources and services.